"Pseudo-MPEC" for P10Rxio

Created 2019 Sep 21 10:07:24 UT using Find_Orb

Click here for an explanation of pseudo-MPECs

 
 Astrometry: 
     P10Rxio  C2019 09 11tqaIcpSQ`=V+r^NtH,MPdNSt8s_;L323\u]6wlxSxp8LD`XK6BTCF51
     P10Rxio  C2019 09 11#N5Astrometryv3*H6]ksMLq?JJqtCVUCFRwiU%redacted;X+lbF51
     P10Rxio  C2019 09 11-mXC*clickJqWvhPlHhereNcEF?UifaA/h!m*b`c`DgW!=y+=E-kF51
     P10Rxio  C2019 09 11.-7for(Zn#UWsVEtI*6cmv-4SbQRmHxexplanationUm`b^h$6[tF51

Station data:
(F51) Pan-STARRS 1, Haleakala  (N20.707235 W156.255910)  US/Hawaii.
   Observers N. Primak, A. Schultz, S. Watters, J. Thiel, T. Goggia. Measurer
   PS1 Science Consortium. 1.8-m Ritchey-Chrétien + CCD.

Orbital elements:  P10Rxio
   Perihelion 2019 Aug 27.102976 +/- 48.7 TT =  2:28:17 (JD 2458722.602976)
Epoch 2019 Sep 12.0 TT = JDT 2458738.5   Earth MOID: 0.5028   AutoNEOCP
M   6.23494340 +/- 38               (J2000 ecliptic)
n   0.39220820 +/- 0.369            Peri.  265.29702 +/- 100
a   1.84838144 +/- 1.16             Node    84.83862 +/- 44
e   0.2802650 +/- 0.271             Incl.   22.28232 +/- 14
P   2.51/917.86d           H 19.8   G  0.15   U 12.1  SR
q 1.33034478 +/- 0.397    Q 2.36641810 +/- 94.8
From 4 observations 2019 Sept. 11 (27.7 min); mean residual 0".07
Residuals in arcseconds: 
190911 F51  .05+  .09+    190911 F51  .00   .02+    
190911 F51  .08-  .15-    190911 F51  .03+  .03+    

Ephemerides (geocentric):
Date (UTC) HH   RA              Dec         delta   r     elong  mag " sig PA
---- -- -- --  -------------   -----------  ------ ------ -----  --- ---- ---
2019 09 21 10  04 05 05.451   -36 49 31.82  .59802 1.3452 111.7 21.0  45d 156
2019 09 21 11  04 05 06.482   -36 49 35.18  .59795 1.3452 111.7 21.0  45d 156
2019 09 21 12  04 05 07.506   -36 49 38.52  .59788 1.3453 111.7 21.0  45d 156
2019 09 21 13  04 05 08.522   -36 49 41.83  .59782 1.3453 111.7 21.0  45d 156
2019 09 21 14  04 05 09.531   -36 49 45.12  .59775 1.3454 111.7 21.0  45d 156
2019 09 21 15  04 05 10.532   -36 49 48.38  .59768 1.3454 111.8 21.0  46d 156
2019 09 21 16  04 05 11.526   -36 49 51.62  .59761 1.3455 111.8 21.0  46d 156
2019 09 21 17  04 05 12.513   -36 49 54.82  .59755 1.3455 111.8 21.0  46d 156
2019 09 21 18  04 05 13.492   -36 49 58.01  .59748 1.3456 111.8 21.0  46d 156
2019 09 21 19  04 05 14.463   -36 50 01.16  .59741 1.3456 111.8 21.0  46d 156
2019 09 21 20  04 05 15.428   -36 50 04.30  .59734 1.3457 111.8 21.0  46d 156
2019 09 21 21  04 05 16.384   -36 50 07.40  .59727 1.3457 111.8 21.0  46d 156
2019 09 21 22  04 05 17.334   -36 50 10.48  .59721 1.3458 111.9 21.0  46d 156
2019 09 21 23  04 05 18.276   -36 50 13.53  .59714 1.3458 111.9 21.0  46d 156
2019 09 22 00  04 05 19.210   -36 50 16.56  .59707 1.3459 111.9 21.0  46d 156
2019 09 22 01  04 05 20.138   -36 50 19.56  .59700 1.3459 111.9 21.0  46d 156
2019 09 22 02  04 05 21.057   -36 50 22.53  .59693 1.3460 111.9 21.0  46d 156
2019 09 22 03  04 05 21.970   -36 50 25.48  .59687 1.3460 111.9 21.0  46d 156
2019 09 22 04  04 05 22.874   -36 50 28.40  .59680 1.3461 111.9 21.0  46d 156
2019 09 22 05  04 05 23.772   -36 50 31.30  .59673 1.3461 112.0 21.0  46d 156
2019 09 22 06  04 05 24.662   -36 50 34.16  .59666 1.3462 112.0 21.0  46d 156
2019 09 22 07  04 05 25.544   -36 50 37.00  .59659 1.3462 112.0 21.0  46d 156
2019 09 22 08  04 05 26.419   -36 50 39.82  .59653 1.3463 112.0 21.0  46d 156
2019 09 22 09  04 05 27.287   -36 50 42.61  .59646 1.3463 112.0 21.0  46d 156
2019 09 22 10  04 05 28.147   -36 50 45.37  .59639 1.3464 112.0 21.0  46d 156
2019 09 22 11  04 05 29.000   -36 50 48.10  .59632 1.3464 112.1 21.0  46d 156
2019 09 22 12  04 05 29.845   -36 50 50.81  .59625 1.3465 112.1 21.0  46d 156
2019 09 22 13  04 05 30.683   -36 50 53.49  .59619 1.3465 112.1 21.0  46d 156
2019 09 22 14  04 05 31.514   -36 50 56.14  .59612 1.3466 112.1 21.0  46d 156
2019 09 22 15  04 05 32.336   -36 50 58.76  .59605 1.3466 112.1 21.0  46d 156
2019 09 22 16  04 05 33.152   -36 51 01.36  .59598 1.3467 112.1 21.0  46d 156
2019 09 22 17  04 05 33.960   -36 51 03.93  .59591 1.3467 112.1 21.0  46d 156
2019 09 22 18  04 05 34.760   -36 51 06.47  .59585 1.3468 112.2 21.0  46d 156
2019 09 22 19  04 05 35.553   -36 51 08.99  .59578 1.3468 112.2 21.0  46d 156
2019 09 22 20  04 05 36.339   -36 51 11.48  .59571 1.3469 112.2 21.0  46d 156
2019 09 22 21  04 05 37.117   -36 51 13.94  .59564 1.3469 112.2 21.0  46d 156
2019 09 22 22  04 05 37.888   -36 51 16.37  .59557 1.3470 112.2 21.0  47d 156
2019 09 22 23  04 05 38.651   -36 51 18.77  .59551 1.3470 112.2 21.0  47d 156
2019 09 23 00  04 05 39.407   -36 51 21.15  .59544 1.3471 112.3 21.0  47d 156
2019 09 23 01  04 05 40.155   -36 51 23.50  .59537 1.3471 112.3 21.0  47d 156
2019 09 23 02  04 05 40.895   -36 51 25.82  .59530 1.3472 112.3 21.0  47d 156
2019 09 23 03  04 05 41.629   -36 51 28.12  .59523 1.3472 112.3 21.0  47d 156
2019 09 23 04  04 05 42.354   -36 51 30.38  .59516 1.3473 112.3 21.0  47d 156
2019 09 23 05  04 05 43.073   -36 51 32.62  .59510 1.3473 112.3 21.0  47d 156
2019 09 23 06  04 05 43.783   -36 51 34.83  .59503 1.3474 112.3 21.0  47d 156
2019 09 23 07  04 05 44.487   -36 51 37.01  .59496 1.3474 112.4 21.0  47d 156
2019 09 23 08  04 05 45.182   -36 51 39.16  .59489 1.3475 112.4 21.0  47d 156
2019 09 23 09  04 05 45.871   -36 51 41.28  .59482 1.3475 112.4 21.0  47d 156